GW6367 Weather Reports


time (UTC)temp
C
wind
direction
speed
KPH
gust
KPH
rain 1hr
cm
rain 24hr
cm
rain mn
cm
humidity
%
barometer
mb
20260505223853 18 232 1.6 3.2 0.00 0.00 0.00 98 1012.0
20260505223354 18 190 1.6 3.2 0.00 0.00 0.00 98 1012.0
20260505222853 18 305 3.2 4.8 0.00 0.00 0.00 99 1012.0
20260505222353 18 182 3.2 4.8 0.00 0.00 0.00 99 1012.0
20260505221853 18 209 0.0 4.8 0.00 0.00 0.00 99 1012.0
20260505221353 18 187 3.2 4.8 0.00 0.00 0.00 99 1012.0
20260505220853 18 180 1.6 3.2 0.00 0.00 0.00 99 1012.0
20260505220353 18 256 4.8 4.8 0.00 0.00 0.00 99 1012.0
20260505215853 18 237 3.2 6.4 0.00 0.00 0.00 99 1012.0
20260505215354 18 248 0.0 3.2 0.00 0.00 0.00 99 1012.0
20260505214854 18 156 0.0 3.2 0.00 0.00 0.00 98 1012.0
20260505214353 18 69 0.0 1.6 0.00 0.00 0.00 99 1012.0
20260505213854 18 250 1.6 3.2 0.00 0.00 0.00 99 1012.0
20260505213353 18 222 3.2 4.8 0.00 0.00 0.00 99 1011.0
20260505212853 18 227 1.6 4.8 0.00 0.00 0.00 99 1011.0
20260505212353 18 195 1.6 3.2 0.00 0.00 0.00 99 1011.0
20260505211853 18 218 3.2 4.8 0.00 0.00 0.00 99 1011.0
20260505211353 18 124 0.0 3.2 0.00 0.00 0.00 99 1011.0
20260505210853 18 265 0.0 3.2 0.00 0.00 0.00 99 1011.0
20260505210353 18 231 0.0 4.8 0.00 0.00 0.00 99 1010.0
20260505205853 17 214 3.2 4.8 0.00 0.00 0.00 99 1010.0
20260505205353 18 222 4.8 6.4 0.00 0.00 0.00 99 1011.0
20260505204853 18 260 4.8 4.8 0.00 0.00 0.00 99 1010.0
20260505204355 18 152 0.0 4.8 0.00 0.00 0.00 98 1010.0
20260505203853 17 44 0.0 3.2 0.00 0.00 0.00 98 1010.0
20260505203354 17 232 1.6 4.8 0.00 0.00 0.00 99 1010.0
20260505202853 18 212 3.2 4.8 0.00 0.00 0.00 98 1010.0
20260505202354 18 227 4.8 6.4 0.00 0.00 0.00 98 1010.0
20260505201853 18 239 4.8 6.4 0.00 0.00 0.00 98 1010.0
20260505201356 18 244 3.2 4.8 0.00 0.00 0.00 98 1010.0
20260505200853 18 219 4.8 4.8 0.00 0.00 0.00 98 1010.0
20260505200354 18 272 3.2 4.8 0.00 0.00 0.00 98 1010.0
20260505195854 18 235 4.8 6.4 0.00 0.00 0.00 98 1010.0
20260505195357 18 229 3.2 4.8 0.00 0.00 0.00 98 1010.0
20260505194856 18 223 3.2 4.8 0.00 0.00 0.00 98 1010.0
20260505194353 18 234 4.8 8.0 0.00 0.00 0.00 98 1010.0
20260505193854 18 215 3.2 4.8 0.00 0.00 0.00 98 1010.0
20260505193354 18 191 1.6 3.2 0.00 0.00 0.00 98 1009.0
20260505192853 18 7 3.2 3.2 0.00 0.00 0.00 98 1009.0
20260505192354 18 298 4.8 4.8 0.00 0.00 0.00 98 1010.0
20260505191853 18 227 0.0 3.2 0.00 0.00 0.00 98 1009.0
20260505191354 18 174 0.0 3.2 0.00 0.00 0.00 99 1010.0
20260505190853 18 229 0.0 3.2 0.00 0.00 0.00 99 1010.0
20260505190354 18 253 3.2 4.8 0.00 0.00 0.00 99 1009.0
20260505185854 18 236 0.0 4.8 0.00 0.00 0.00 99 1010.0
20260505185353 18 207 3.2 6.4 0.00 0.00 0.00 98 1009.0
20260505184854 18 192 3.2 4.8 0.00 0.00 0.00 98 1010.0
20260505184354 18 200 4.8 4.8 0.00 0.00 0.00 98 1010.0
20260505183854 18 215 1.6 3.2 0.00 0.00 0.00 98 1010.0
20260505183353 18 219 3.2 4.8 0.00 0.00 0.00 98 1010.0
20260505182855 18 291 0.0 4.8 0.00 0.00 0.00 98 1010.0
20260505182353 18 233 4.8 6.4 0.00 0.00 0.00 98 1010.0
20260505181854 18 224 1.6 4.8 0.00 0.00 0.00 98 1010.0
20260505181354 18 198 3.2 8.0 0.00 0.00 0.00 98 1010.0
20260505180854 18 213 1.6 4.8 0.00 0.00 0.00 98 1010.0
20260505180354 18 212 3.2 6.4 0.00 0.00 0.00 98 1009.0
20260505175854 18 264 4.8 8.0 0.00 0.00 0.00 98 1009.0
20260505175354 18 244 4.8 8.0 0.00 0.00 0.00 98 1010.0
20260505174853 18 241 3.2 4.8 0.00 0.00 0.00 98 1009.0
20260505174354 18 237 4.8 4.8 0.00 0.00 0.00 98 1010.0
20260505173853 18 259 3.2 6.4 0.00 0.00 0.00 98 1010.0
20260505173354 18 237 3.2 6.4 0.00 0.00 0.00 98 1010.0
20260505172854 18 114 1.6 6.4 0.00 0.00 0.00 98 1010.0
20260505172354 18 208 6.4 8.0 0.05 0.00 0.00 98 1010.0
20260505171853 18 252 1.6 4.8 0.05 0.00 0.00 98 1009.0
20260505171353 18 189 6.4 8.0 0.00 0.00 0.00 98 1010.0
20260505170853 18 248 3.2 6.4 0.00 0.00 0.00 98 1010.0
20260505170354 18 211 4.8 6.4 0.00 0.00 0.00 98 1010.0
20260505165854 18 291 4.8 6.4 0.00 0.00 0.00 98 1009.0
20260505165353 18 284 4.8 6.4 0.00 0.00 0.00 98 1009.0
20260505164854 18 269 3.2 6.4 0.00 0.00 0.00 98 1009.0
20260505164354 18 223 1.6 11.3 0.00 0.00 0.00 98 1009.0
20260505163854 18 207 3.2 8.0 0.00 0.00 0.00 98 1009.0
20260505163353 18 220 1.6 6.4 0.00 0.00 0.00 98 1009.0
20260505162853 18 245 4.8 8.0 0.00 0.00 0.00 98 1009.0
20260505162353 18 138 3.2 8.0 0.00 0.00 0.00 98 1009.0
20260505161853 18 238 3.2 4.8 0.00 0.00 0.00 98 1009.0
20260505161354 18 257 3.2 8.0 0.00 0.00 0.00 98 1010.0
20260505160853 18 331 3.2 4.8 0.00 0.00 0.00 98 1010.0
20260505160354 18 263 3.2 9.7 0.00 0.00 0.00 98 1009.0
20260505153353 18 232 4.8 6.4 0.00 0.00 0.25 98 1010.0
20260505152854 19 239 3.2 3.2 0.00 0.00 0.25 98 1010.0
20260505152359 18 283 3.2 4.8 0.00 0.00 0.25 98 1010.0
20260505151854 18 250 4.8 4.8 0.00 0.00 0.25 98 1010.0
20260505151353 19 284 1.6 4.8 0.00 0.00 0.25 98 1010.0
20260505150854 19 213 4.8 6.4 0.00 0.00 0.25 98 1010.0
20260505150353 19 245 1.6 4.8 0.00 0.00 0.25 97 1010.0
20260505140356 20 266 3.2 4.8 0.00 0.00 0.25 97 1010.0
20260505124853 19 255 3.2 4.8 0.00 0.00 0.25 97 1009.0
20260505124353 19 255 3.2 4.8 0.00 0.00 0.25 97 1009.0
20260505123853 19 265 4.8 4.8 0.00 0.00 0.25 97 1009.0
20260505123353 19 290 0.0 4.8 0.00 0.00 0.25 97 1009.0
20260505122854 19 278 4.8 6.4 0.00 0.00 0.25 97 1009.0
20260505122354 19 257 1.6 4.8 0.05 0.00 0.25 97 1009.0
20260505121854 19 222 3.2 6.4 0.05 0.00 0.25 97 1009.0
20260505121354 19 257 4.8 6.4 0.13 0.00 0.23 97 1009.0
20260505120853 19 257 4.8 4.8 0.30 0.00 0.23 96 1009.0
20260505120354 20 254 3.2 4.8 0.66 0.00 0.23 96 1009.0
20260505115854 20 211 3.2 8.0 0.89 0.00 0.18 96 1009.0
20260505115353 20 267 6.4 11.3 0.43 0.00 0.10 94 1009.0
20260505114853 20 269 1.6 9.7 0.18 0.00 0.03 93 1009.0
20260505114353 20 229 9.7 11.3 0.13 0.00 0.03 92 1009.0
20260505113853 21 271 3.2 9.7 0.00 0.00 0.00 90 1009.0
20260505113353 21 245 4.8 9.7 0.00 0.00 0.00 90 1009.0
20260505112853 21 254 8.0 11.3 0.00 0.00 0.00 89 1009.0
20260505112354 21 232 6.4 8.0 0.00 0.00 0.00 89 1009.0
20260505111854 21 258 8.0 9.7 0.00 0.00 0.00 88 1008.0
20260505111354 21 279 4.8 8.0 0.00 0.00 0.00 88 1009.0
20260505110854 21 217 6.4 9.7 0.00 0.00 0.00 88 1008.0
20260505110353 21 203 4.8 9.7 0.00 0.00 0.00 88 1009.0
20260505101853 21 277 8.0 12.9 0.00 0.00 0.00 87 1008.0
20260505101355 21 213 6.4 16.1 0.00 0.00 0.00 86 1008.0
20260505100853 21 259 8.0 11.3 0.00 0.00 0.00 86 1008.0
20260505100353 21 275 3.2 19.3 0.00 0.00 0.00 85 1008.0
20260505095853 22 238 4.8 12.9 0.00 0.00 0.00 84 1008.0
20260505095353 22 295 6.4 9.7 0.00 0.00 0.00 84 1008.0
20260505094853 22 238 6.4 14.5 0.00 0.00 0.00 83 1008.0
20260505094353 22 282 8.0 14.5 0.00 0.00 0.00 82 1008.0
20260505093854 22 253 9.7 11.3 0.00 0.00 0.00 80 1008.0
20260505093355 23 276 6.4 14.5 0.00 0.00 0.00 78 1008.0
20260505092853 23 242 11.3 12.9 0.00 0.00 0.00 78 1008.0
20260505092353 22 278 4.8 14.5 0.00 0.00 0.00 79 1008.0
20260505091854 22 246 8.0 14.5 0.00 0.00 0.00 80 1008.0
20260505091353 22 340 4.8 19.3 0.00 0.00 0.00 80 1008.0
20260505090854 22 294 4.8 17.7 0.00 0.00 0.00 79 1008.0
20260505090353 23 238 9.7 16.1 0.00 0.00 0.00 79 1008.0
20260505085854 23 285 8.0 16.1 0.00 0.00 0.00 77 1008.0
20260505085353 23 233 6.4 12.9 0.00 0.00 0.00 76 1008.0
20260505084854 24 266 11.3 14.5 0.00 0.00 0.00 74 1008.0
20260505084353 25 256 4.8 11.3 0.00 0.00 0.00 71 1008.0
20260505083853 25 239 4.8 11.3 0.00 0.00 0.00 70 1007.0
20260505083353 25 309 8.0 11.3 0.00 0.00 0.00 69 1007.0
20260505082854 25 246 11.3 17.7 0.00 0.00 0.00 68 1008.0
20260505082353 25 231 3.2 12.9 0.00 0.00 0.00 67 1008.0
20260505081853 25 214 11.3 16.1 0.00 0.00 0.00 67 1008.0
20260505081354 25 269 8.0 17.7 0.00 0.00 0.00 66 1008.0
20260505080854 25 282 6.4 20.9 0.00 0.00 0.00 65 1008.0
20260505080353 25 241 6.4 17.7 0.00 0.00 0.00 65 1008.0
20260505075853 25 243 9.7 14.5 0.00 0.00 0.00 63 1008.0
20260505075353 26 239 4.8 14.5 0.00 0.00 0.00 63 1008.0
20260505074855 26 295 6.4 11.3 0.00 0.00 0.00 63 1008.0
20260505074354 26 316 9.7 12.9 0.00 0.00 0.00 63 1008.0
20260505073854 26 302 14.5 16.1 0.00 0.00 0.00 63 1008.0
20260505073353 25 256 6.4 14.5 0.00 0.00 0.00 64 1008.0
20260505072853 26 260 6.4 9.7 0.00 0.00 0.00 62 1008.0
20260505072355 25 267 11.3 16.1 0.00 0.00 0.00 64 1008.0
20260505071854 25 207 6.4 9.7 0.00 0.00 0.00 65 1008.0
20260505071353 25 225 6.4 12.9 0.00 0.00 0.00 64 1008.0
20260505070853 25 250 6.4 14.5 0.00 0.00 0.00 65 1008.0
20260505070353 25 308 8.0 11.3 0.00 0.00 0.00 66 1009.0
20260505065853 25 285 4.8 12.9 0.00 0.00 0.00 66 1009.0
20260505065355 25 242 8.0 8.0 0.00 0.00 0.00 65 1009.0
20260505064853 25 230 6.4 14.5 0.00 0.00 0.00 66 1009.0
20260505064353 25 292 6.4 12.9 0.00 0.00 0.00 66 1009.0
20260505063853 25 250 11.3 17.7 0.00 0.00 0.00 67 1009.0
20260505063353 25 241 6.4 9.7 0.00 0.00 0.00 66 1009.0
20260505062854 25 287 6.4 16.1 0.00 0.00 0.00 65 1009.0
20260505062353 25 242 4.8 14.5 0.00 0.00 0.00 65 1009.0
20260505061853 24 299 9.7 12.9 0.00 0.00 0.00 67 1009.0
20260505061353 25 272 9.7 12.9 0.00 0.00 0.00 66 1009.0
20260505060853 25 272 6.4 12.9 0.00 0.00 0.00 65 1009.0
20260505060353 25 288 8.0 12.9 0.00 0.00 0.00 65 1009.0
20260505055853 25 244 9.7 17.7 0.00 0.00 0.00 64 1009.0
20260505055354 25 254 8.0 12.9 0.00 0.00 0.00 64 1010.0
20260505054853 25 309 8.0 14.5 0.00 0.00 0.00 62 1009.0
20260505054353 25 275 4.8 14.5 0.00 0.00 0.00 64 1009.0
20260505053855 24 227 3.2 14.5 0.00 0.00 0.00 66 1009.0
20260505053353 25 258 11.3 20.9 0.00 0.00 0.00 65 1010.0
20260505052853 25 264 8.0 12.9 0.00 0.00 0.00 64 1010.0
20260505052354 26 244 9.7 12.9 0.00 0.00 0.00 61 1010.0
20260505051853 26 264 8.0 12.9 0.00 0.00 0.00 61 1010.0
20260505051353 25 247 9.7 12.9 0.00 0.00 0.00 63 1010.0
20260505050853 25 229 8.0 11.3 0.00 0.00 0.00 64 1010.0
20260505050353 25 283 6.4 14.5 0.00 0.00 0.00 64 1010.0
20260505041422 25 269 8.0 16.1 0.00 0.00 0.00 62 1011.0
20260505040854 26 283 3.2 11.3 0.00 0.00 0.00 60 1011.0
20260505035915 25 279 4.8 9.7 0.00 0.00 0.00 59 1011.0
20260505035356 26 272 8.0 9.7 0.00 0.00 0.00 57 1011.0
20260505034853 27 310 3.2 14.5 0.00 0.00 0.00 55 1011.0
20260505034353 26 309 3.2 6.4 0.00 0.00 0.00 57 1011.0
20260505033853 25 226 3.2 12.9 0.00 0.00 0.00 61 1011.0
20260505033353 25 265 4.8 11.3 0.00 0.00 0.00 60 1011.0
20260505032853 26 282 4.8 16.1 0.00 0.00 0.00 58 1011.0
20260505032354 25 275 4.8 4.8 0.00 0.00 0.00 57 1011.0
20260505031853 26 240 8.0 11.3 0.00 0.00 0.00 54 1012.0
20260505031353 26 169 1.6 8.0 0.00 0.00 0.00 53 1012.0
20260505030854 26 239 6.4 11.3 0.00 0.00 0.00 55 1012.0
20260505030355 26 160 0.0 4.8 0.00 0.00 0.00 53 1012.0
20260505025855 26 77 1.6 8.0 0.00 0.00 0.00 53 1012.0
20260505025355 25 33 4.8 11.3 0.00 0.00 0.00 54 1012.0
20260505024855 26 305 4.8 9.7 0.00 0.00 0.00 52 1012.0
20260505024356 26 289 3.2 8.0 0.00 0.00 0.00 50 1012.0
20260505023853 26 96 4.8 8.0 0.00 0.00 0.00 50 1012.0
20260505023355 26 197 4.8 8.0 0.00 0.00 0.00 49 1012.0
20260505022855 26 175 6.4 6.4 0.00 0.00 0.00 49 1012.0
20260505022356 25 327 8.0 8.0 0.00 0.00 0.00 50 1012.0
20260505021855 26 339 6.4 8.0 0.00 0.00 0.00 50 1011.0
20260505021356 26 227 4.8 8.0 0.00 0.00 0.00 49 1012.0
20260505020854 25 294 3.2 8.0 0.00 0.00 0.00 51 1012.0
20260505020354 25 268 4.8 6.4 0.00 0.00 0.00 52 1012.0
20260505015853 25 273 3.2 8.0 0.00 0.00 0.00 52 1012.0
20260505015353 25 22 8.0 8.0 0.00 0.00 0.00 52 1012.0
20260505014854 25 180 3.2 6.4 0.00 0.00 0.00 51 1012.0
20260505014353 25 9 8.0 8.0 0.00 0.00 0.00 52 1012.0
20260505013853 24 206 4.8 8.0 0.00 0.00 0.00 51 1012.0
20260505013353 25 13 3.2 8.0 0.00 0.00 0.00 52 1012.0
20260505012853 25 214 4.8 6.4 0.00 0.00 0.00 52 1012.0
20260505012353 23 218 3.2 6.4 0.00 0.00 0.00 52 1012.0
20260505011854 23 164 1.6 4.8 0.00 0.00 0.00 54 1012.0
20260505011353 23 32 8.0 9.7 0.00 0.00 0.00 54 1012.0
20260505010854 23 247 1.6 9.7 0.00 0.00 0.00 53 1012.0
20260505010354 23 350 4.8 6.4 0.00 0.00 0.00 59 1013.0
20260505005855 23 57 1.6 6.4 0.00 0.00 0.00 57 1013.0
20260505005356 23 332 4.8 11.3 0.00 0.00 0.00 57 1013.0
20260505004854 23 305 4.8 8.0 0.00 0.00 0.00 59 1012.0
20260505004353 22 356 1.6 9.7 0.00 0.00 0.00 61 1012.0
20260505003853 21 216 1.6 8.0 0.00 0.00 0.00 63 1013.0
20260505003353 22 34 3.2 8.0 0.00 0.00 0.00 62 1013.0
20260505002853 22 301 6.4 9.7 0.00 0.00 0.00 63 1013.0
20260505002353 22 26 3.2 8.0 0.00 0.00 0.00 63 1012.0
20260505001855 22 332 4.8 11.3 0.00 0.00 0.00 64 1012.0
20260505001353 22 17 0.0 6.4 0.00 0.00 0.00 64 1013.0
20260505000853 22 270 6.4 12.9 0.00 0.00 0.00 64 1012.0
20260505000353 22 269 1.6 6.4 0.00 0.00 0.00 65 1012.0
20260504235853 21 216 3.2 8.0 0.00 0.00 0.00 67 1012.0
20260504235355 21 217 4.8 8.0 0.00 0.00 0.00 69 1012.0
20260504234853 21 214 3.2 8.0 0.00 0.00 0.00 70 1012.0
20260504234353 21 262 1.6 8.0 0.00 0.00 0.00 70 1012.0
20260504233853 21 20 3.2 9.7 0.00 0.00 0.00 71 1012.0
20260504233353 21 235 4.8 8.0 0.00 0.00 0.00 72 1012.0
20260504232853 21 265 0.0 9.7 0.00 0.00 0.00 72 1012.0
20260504232353 21 346 3.2 6.4 0.00 0.00 0.00 73 1012.0
20260504231854 20 280 4.8 4.8 0.00 0.00 0.00 75 1012.0
20260504231353 20 221 4.8 6.4 0.00 0.00 0.00 76 1012.0
20260504230854 20 68 1.6 6.4 0.00 0.00 0.00 75 1012.0
20260504230353 20 210 1.6 4.8 0.00 0.00 0.00 77 1012.0
20260504225853 20 318 4.8 8.0 0.00 0.00 0.00 77 1012.0
20260504225354 19 329 1.6 4.8 0.00 0.00 0.00 79 1012.0
20260504224853 18 193 0.0 4.8 0.00 0.00 0.00 82 1012.0
20260504224354 18 152 4.8 6.4 0.00 0.00 0.00 83 1012.0